FW2883 Weather Reports


time (UTC)temp
C
wind
direction
speed
KPH
gust
KPH
rain 1hr
cm
rain 24hr
cm
rain mn
cm
humidity
%
barometer
mb
20260504044545 9 273 0.0 0.0 0.00 0.00 0.00 62 1007.9
20260504043038 10 273 0.0 0.0 0.00 0.00 0.00 60 1008.0
20260504041536 10 273 0.0 0.0 0.00 0.00 0.00 59 1008.1
20260504040041 10 273 0.0 0.0 0.00 0.00 0.00 58 1008.3
20260504034535 11 273 0.0 0.0 0.00 0.00 0.00 58 1008.5
20260504033046 12 273 0.0 0.0 0.00 0.00 0.00 55 1008.7
20260504031535 13 273 0.0 0.0 0.00 0.00 0.00 50 1009.0
20260504030133 14 273 0.0 0.0 0.00 0.00 0.00 47 1008.9
20260504024542 15 274 0.0 4.8 0.00 0.00 0.00 45 1009.0
20260504023031 16 280 3.2 4.8 0.00 0.00 0.00 43 1008.8
20260504021531 16 286 0.0 4.8 0.00 0.00 0.00 42 1008.7
20260504020030 17 286 0.0 4.8 0.00 0.00 0.00 40 1008.6
20260504014532 17 286 1.6 4.8 0.00 0.00 0.00 38 1008.5
20260504013029 18 286 1.6 4.8 0.00 0.00 0.00 36 1008.5
20260504011528 19 292 1.6 4.8 0.00 0.00 0.00 35 1008.4
20260504010029 20 280 4.8 9.7 0.00 0.00 0.00 34 1008.3
20260504004539 21 284 4.8 16.1 0.00 0.00 0.00 33 1008.3
20260504003029 21 296 8.0 24.1 0.00 0.00 0.00 31 1008.3
20260504001526 22 302 14.5 24.1 0.00 0.00 0.00 29 1008.2
20260504000025 22 321 9.7 17.7 0.00 0.00 0.00 31 1008.2
20260503234523 22 302 14.5 25.7 0.00 0.00 0.00 31 1008.1
20260503233029 22 286 16.1 25.7 0.00 0.00 0.00 31 1008.1
20260503231521 22 273 17.7 25.7 0.00 0.00 0.00 29 1008.2
20260503230021 22 289 14.5 29.0 0.00 0.00 0.00 31 1008.1
20260503224520 22 271 12.9 22.5 0.00 0.00 0.00 30 1008.3
20260503223020 22 297 14.5 29.0 0.00 0.00 0.00 30 1008.1
20260503221518 22 292 12.9 27.4 0.00 0.00 0.00 28 1008.2
20260503220017 22 321 16.1 32.2 0.00 0.00 0.00 26 1008.1
20260503214515 23 304 16.1 29.0 0.00 0.00 0.00 28 1008.0
20260503213018 23 360 14.5 29.0 0.00 0.00 0.00 30 1008.0
20260503211512 22 287 9.7 27.4 0.00 0.00 0.00 33 1008.1
20260503210009 23 333 16.1 27.4 0.00 0.00 0.00 32 1008.1
20260503204509 22 339 14.5 30.6 0.00 0.00 0.00 31 1008.3
20260503203006 22 284 19.3 30.6 0.00 0.00 0.00 34 1008.4
20260503201503 22 299 16.1 29.0 0.00 0.00 0.00 34 1008.5
20260503200002 22 325 16.1 30.6 0.00 0.00 0.00 35 1008.6
20260503194501 22 306 16.1 29.0 0.00 0.00 0.00 34 1008.6
20260503193002 22 311 16.1 35.4 0.00 0.00 0.00 33 1008.7
20260503191558 22 298 16.1 35.4 0.00 0.00 0.00 36 1008.7
20260503190059 22 299 20.9 32.2 0.00 0.00 0.00 34 1008.7
20260503184607 22 327 19.3 35.4 0.00 0.00 0.00 40 1008.9
20260503183054 22 279 16.1 25.7 0.00 0.00 0.00 38 1008.8
20260503181553 21 314 19.3 35.4 0.00 0.00 0.00 38 1008.8
20260503180052 21 269 16.1 30.6 0.00 0.00 0.00 40 1008.8
20260503174604 21 314 17.7 30.6 0.00 0.00 0.00 40 1008.9
20260503173049 21 304 17.7 25.7 0.00 0.00 0.00 40 1009.2
20260503171545 20 265 14.5 29.0 0.00 0.00 0.00 42 1009.3
20260503081539 12 192 9.7 25.7 0.00 0.00 0.00 50 1015.0
20260503071531 11 177 9.7 24.1 0.00 0.00 0.00 51 1015.4